Wind_Speed
22 23 22 21 20 19 18 17 16 17 18 19 19 19 19 19 20 20 20 20 21 22 22 22 22 24 26 27 27 27 27 27 28 28 27 27 26 27 27 27 27 27 27 26 26 25 25 24 23 22 22 21 21 20 20 20 20 21 21 21 21 21 21 21 21 20 20 20 19
22 22 22 22 22 21 19 17 17 18 19 19 19 19 19 20 19 20 20 21 21 22 23 23 23 24 25 26 26 27 27 28 29 28 28 28 27 28 28 28 27 27 27 26 26 25 25 24 23 23 22 21 20 20 20 20 20 21 21 21 21 21 20 19 19 19 19 19 19
22 22 23 23 23 23 21 19 19 21 22 20 19 19 20 20 19 19 20 21 22 22 23 23 24 25 25 25 27 28 28 28 28 29 29 28 29 29 29 28 28 28 27 26 26 25 25 25 23 22 21 20 20 21 21 21 20 20 21 21 20 19 18 18 18 18 18 18 18
22 23 23 23 23 23 22 21 21 22 22 21 20 20 20 20 20 20 20 21 22 22 23 24 24 25 25 26 28 29 29 29 28 28 29 29 30 30 30 29 29 29 28 27 26 26 25 25 23 22 21 20 21 20 20 21 20 20 20 20 19 19 18 18 18 18 18 18 19
22 23 23 23 23 22 22 22 22 22 22 21 21 21 21 21 20 21 21 22 22 23 24 24 24 25 26 28 29 30 30 30 29 29 29 30 31 31 30 30 30 29 29 28 27 26 25 24 23 21 21 20 20 20 20 21 21 21 21 20 19 18 18 19 19 19 19 19 19
22 23 23 23 23 22 22 22 22 21 21 21 21 22 22 22 21 21 22 22 23 24 25 25 25 26 28 30 30 31 31 31 30 30 30 31 31 31 31 31 31 30 29 28 28 27 26 24 22 21 20 20 20 20 20 21 21 21 21 20 19 19 19 20 20 20 20 20 21
22 23 23 23 23 23 22 22 21 21 21 21 21 22 23 23 22 22 23 23 24 25 25 25 26 28 30 30 30 30 30 31 31 31 31 31 32 32 32 32 31 31 30 29 28 27 26 24 22 21 21 20 19 19 20 20 20 20 21 21 21 20 20 21 21 21 21 22 22
22 22 22 22 23 22 22 22 21 21 20 20 21 22 23 23 23 23 24 25 25 25 26 26 28 29 30 30 30 30 31 31 32 32 32 32 33 33 33 32 32 31 31 30 28 27 26 24 22 21 20 19 19 19 20 20 21 22 22 23 23 23 22 21 21 21 21 22 23
22 22 22 22 22 22 22 22 21 20 20 20 21 22 23 22 23 24 25 25 26 27 27 28 29 30 30 30 30 31 31 31 32 33 33 33 34 34 34 33 32 32 31 30 29 27 26 24 22 21 20 19 19 20 21 21 22 23 24 24 23 23 22 21 21 22 22 23 24
22 22 22 22 22 22 21 21 20 19 19 20 21 23 23 23 24 26 26 26 27 28 29 29 30 30 31 31 31 31 31 32 33 34 35 35 35 35 35 34 33 33 32 31 29 28 26 23 22 22 21 21 21 22 23 23 23 24 24 23 23 23 23 23 22 22 23 23 23
21 21 21 21 22 21 21 21 20 19 19 21 23 24 25 25 26 27 27 27 29 30 30 30 30 31 31 31 31 32 33 33 34 35 35 36 36 36 36 35 35 34 33 32 30 27 25 23 23 23 23 23 23 23 23 23 23 23 23 23 24 25 25 24 23 22 22 22 22
20 21 21 20 21 21 21 21 20 19 20 22 23 25 26 26 27 27 27 28 29 30 30 30 31 31 31 31 32 33 34 35 36 36 36 36 36 37 36 36 35 34 33 32 30 27 25 24 24 24 25 24 24 23 23 23 23 23 23 24 25 26 26 26 24 22 21 21 22
20 20 20 21 21 21 21 21 20 19 21 23 24 25 26 27 27 28 28 29 29 30 30 31 31 31 31 32 33 34 35 36 37 37 37 37 37 37 36 36 35 34 33 32 30 28 26 25 25 25 25 25 25 24 23 23 22 22 23 24 25 26 26 27 25 23 21 21 21
19 19 20 21 21 20 20 21 20 20 21 23 25 26 27 27 28 28 28 29 30 30 31 31 32 32 32 33 34 35 36 36 37 38 39 38 38 38 37 35 35 34 33 32 30 29 27 26 26 26 25 25 25 24 23 23 22 22 22 23 24 25 26 26 24 23 21 20 20
19 20 20 21 20 20 20 21 20 20 22 24 25 26 27 28 28 29 29 29 30 30 31 32 33 33 34 34 35 35 36 36 37 38 39 40 40 40 38 37 36 35 34 33 31 29 27 25 25 24 24 24 24 24 23 22 21 21 22 23 23 24 23 23 22 21 20 19 18
20 20 21 20 20 20 21 21 21 21 23 24 26 27 28 28 29 29 29 30 30 30 31 32 33 34 34 35 35 35 35 36 37 38 38 39 40 41 41 40 39 37 36 33 30 27 24 22 21 21 21 21 22 22 21 20 20 20 20 20 20 20 20 19 19 18 18 17 17
21 21 21 21 21 21 21 21 22 22 24 25 26 27 28 29 30 30 30 30 30 31 32 33 33 34 34 35 35 35 35 35 36 37 38 39 40 41 42 42 41 40 36 31 26 24 22 21 20 19 19 19 19 19 18 18 17 17 16 16 16 16 16 16 15 15 15 15 15
22 22 21 21 21 21 21 22 22 23 24 25 27 28 28 29 30 30 30 30 30 31 32 33 33 33 34 35 35 35 34 35 36 36 37 38 39 40 41 43 43 41 36 28 24 23 23 22 22 21 20 19 19 19 19 18 17 16 15 14 13 13 13 12 12 11 11 11 11
22 21 21 21 21 21 21 22 23 24 25 26 27 28 29 29 30 30 30 30 30 31 32 32 33 34 34 35 35 35 35 35 35 36 37 37 38 39 41 41 42 41 35 26 25 25 26 25 24 24 23 23 23 23 22 21 20 18 17 15 14 13 12 10 9 7 7 8 10
21 21 21 21 21 21 22 22 23 24 25 26 27 28 29 29 29 30 30 30 30 30 31 32 33 33 34 35 36 36 36 35 35 36 37 37 38 39 39 40 40 39 33 25 25 28 29 29 27 26 26 26 26 26 26 25 24 23 22 21 20 19 17 16 14 13 13 14 16
21 21 20 20 20 21 22 23 24 25 26 26 27 28 28 29 29 29 29 29 29 29 30 31 32 33 34 34 35 36 36 35 35 36 36 37 38 39 39 39 38 37 33 27 26 29 31 32 30 28 28 28 28 29 29 29 28 27 27 26 26 26 26 25 24 22 20 19 19
20 20 20 20 20 21 22 23 24 25 26 27 27 28 28 28 28 28 28 28 28 29 30 31 31 32 33 33 34 35 36 36 37 37 37 38 38 39 39 38 36 35 33 30 27 28 32 34 33 31 30 30 30 31 32 32 31 30 28 27 26 25 25 25 25 24 22 20 19
20 20 20 20 21 22 23 24 25 26 26 26 27 27 27 28 28 28 28 27 28 28 29 30 30 31 31 32 33 34 35 36 37 38 38 39 39 39 39 38 35 32 32 32 32 30 31 34 34 34 33 32 32 32 33 34 33 32 31 29 26 24 22 21 21 22 21 20 19
19 20 20 20 21 22 23 24 25 26 26 26 27 27 27 27 27 27 27 27 27 28 29 29 30 30 31 31 32 34 35 35 37 38 39 40 40 39 39 38 34 30 30 32 33 32 31 32 33 34 34 33 33 33 33 33 33 33 33 32 30 28 24 21 21 22 23 23 21
19 20 20 21 22 23 24 25 25 26 26 26 26 26 27 27 27 27 27 27 27 27 28 28 29 29 30 31 32 33 34 34 35 37 38 39 40 40 39 38 33 29 29 31 32 32 31 31 32 33 34 34 33 32 32 32 33 34 34 33 32 31 29 26 24 25 26 26 25
19 20 21 22 23 24 24 25 26 26 26 26 26 26 26 26 27 27 27 27 27 27 27 28 28 28 29 30 31 32 33 34 34 35 37 38 39 39 39 38 33 29 29 31 31 31 31 30 30 31 33 34 32 31 30 31 31 33 33 33 33 32 31 29 27 27 28 28 27
19 20 21 22 23 24 25 25 26 26 26 26 26 26 26 26 26 27 27 27 26 26 27 27 27 27 28 29 31 32 33 33 33 34 35 37 37 37 37 37 34 30 28 30 31 32 31 30 29 29 30 32 32 30 29 28 28 30 32 32 32 32 32 30 29 27 26 28 28
19 20 21 22 23 24 25 25 26 26 26 26 26 25 25 25 26 27 27 27 26 26 26 26 26 27 28 29 30 31 31 32 32 33 34 35 36 36 35 36 35 31 28 29 31 32 32 31 30 29 29 30 31 30 28 27 26 28 29 30 31 31 31 31 30 28 26 27 28
19 20 21 22 23 24 25 25 26 26 26 26 25 24 24 25 26 26 27 26 26 26 26 26 26 26 27 28 29 29 30 31 31 32 33 34 35 35 35 35 34 31 27 29 31 32 33 32 31 30 29 29 30 29 28 26 25 26 27 28 29 30 30 30 30 28 27 26 27
19 20 20 22 23 24 25 25 26 26 26 26 24 24 24 24 25 26 26 26 25 25 24 24 25 26 26 27 27 28 29 30 31 31 32 33 34 34 35 35 34 31 28 28 30 32 33 33 32 31 31 30 30 29 28 27 26 26 26 27 28 29 29 29 29 29 28 26 26
18 19 20 21 22 23 24 25 25 26 26 25 24 23 23 24 24 25 25 25 24 24 23 23 24 24 25 25 25 27 28 29 30 31 31 32 32 33 34 34 35 33 29 28 29 31 32 32 32 32 32 32 32 32 31 28 27 26 26 27 28 28 28 28 28 29 29 27 25
19 19 20 21 22 23 24 24 25 25 25 25 23 22 22 23 23 24 24 24 24 23 23 22 23 24 24 24 24 25 26 28 29 30 30 31 31 32 33 33 35 34 31 29 29 30 31 32 32 32 33 34 34 34 33 31 30 29 28 27 27 28 28 28 29 29 29 29 26
20 20 21 22 23 23 24 24 25 25 25 24 22 21 22 22 22 22 23 23 23 23 22 22 22 23 24 24 23 24 25 26 27 28 29 30 30 31 32 32 33 33 32 31 29 29 30 31 31 32 33 34 35 36 35 34 32 31 30 29 28 27 27 28 28 29 29 29 28
21 21 22 22 22 23 23 24 24 24 24 23 21 21 21 21 22 22 22 22 22 22 21 21 21 22 22 22 22 22 23 24 25 27 28 29 30 30 31 31 32 32 33 33 30 28 28 30 31 31 32 33 35 35 35 34 33 32 31 30 29 28 28 28 28 28 28 29 29
21 22 22 22 22 22 23 24 24 24 23 22 21 20 20 21 21 21 21 22 22 21 21 21 21 21 21 21 20 20 21 22 24 25 26 28 28 29 30 31 31 31 32 33 31 28 26 28 29 31 33 34 35 34 33 33 32 32 31 30 29 29 28 28 28 27 27 27 28
21 21 22 22 22 22 23 24 24 23 22 21 20 20 20 20 20 20 20 20 21 21 21 21 21 21 21 21 20 20 20 21 22 23 25 26 27 28 29 29 30 30 30 30 32 29 26 26 27 30 33 35 35 33 32 31 31 31 30 29 28 28 28 28 28 27 27 26 27
20 20 21 21 21 22 23 24 24 23 22 20 19 19 20 20 19 19 19 20 20 21 21 21 21 21 21 21 21 20 19 20 21 22 23 25 26 27 27 28 28 29 29 29 31 30 27 24 25 28 32 34 34 33 31 30 30 30 30 28 27 27 27 27 27 27 27 26 25
19 20 20 20 21 22 23 24 23 22 21 19 18 18 19 19 19 19 19 20 20 20 20 21 21 21 21 21 20 20 19 19 19 20 22 23 24 25 26 27 27 27 27 27 30 30 27 24 23 26 30 32 33 32 30 30 30 30 29 28 27 26 26 25 26 26 27 26 24
19 19 19 19 20 21 23 23 23 21 20 18 18 18 18 18 18 18 19 19 19 19 20 20 20 20 20 20 20 20 19 19 19 19 20 22 23 23 24 25 25 26 26 26 27 28 27 25 22 24 27 30 31 31 30 30 30 30 30 29 27 26 25 25 25 25 26 27 25
18 18 18 19 20 21 22 23 22 21 19 17 17 17 18 17 17 17 17 17 17 18 19 20 20 20 20 20 20 20 20 20 19 19 19 20 21 21 22 23 23 24 24 25 25 26 27 26 23 22 24 28 29 29 29 29 30 30 31 30 28 26 25 25 24 24 25 26 25
17 18 18 19 20 21 22 23 22 20 18 17 16 17 17 16 15 15 16 16 16 17 18 19 20 20 20 20 20 20 20 20 20 19 19 19 19 19 20 21 22 22 23 23 23 24 26 26 25 23 22 25 27 28 28 28 28 29 29 30 28 26 25 24 23 23 24 24 25
Wind_Direction
5 5 3 360 355 351 348 345 344 343 342 340 338 337 336 334 333 332 332 332 331 330 329 327 326 326 326 327 328 328 327 326 325 324 323 321 319 318 318 316 316 316 315 313 313 313 313 312 311 309 307 306 304 303 302 302 302 300 298 297 298 298 299 299 298 298 299 298 297
6 6 5 2 359 356 352 348 345 344 344 342 340 339 337 335 333 332 333 333 332 331 330 330 328 327 327 328 328 327 326 325 324 323 321 320 318 317 316 314 313 312 311 310 311 311 310 310 309 308 306 305 304 303 303 302 301 299 297 296 297 298 298 298 298 299 300 300 299
7 6 5 4 2 360 356 351 347 347 347 345 342 340 338 337 335 333 332 332 331 331 331 331 330 329 327 327 327 327 325 323 322 321 320 318 316 315 314 312 311 311 310 308 308 307 307 308 307 306 304 303 302 302 302 301 300 298 296 295 296 296 297 296 297 297 298 298 297
8 7 5 3 2 1 358 353 350 350 350 347 344 342 340 338 337 335 334 334 333 333 333 331 330 329 328 327 326 325 324 323 320 319 318 316 314 313 312 311 310 310 309 308 307 306 305 305 304 303 302 301 300 299 299 299 298 296 295 293 294 294 293 294 294 295 295 296 295
9 8 6 4 3 1 359 356 354 353 351 349 346 344 342 341 339 338 338 337 335 333 333 331 329 329 328 327 326 324 323 322 321 319 316 314 313 312 311 310 309 309 308 307 307 306 305 304 303 301 300 300 298 297 297 296 295 293 292 292 291 291 291 292 292 292 292 293 293
8 7 6 5 3 1 359 357 356 354 353 351 348 346 344 343 341 340 338 336 333 332 332 332 330 329 328 327 326 325 323 322 320 318 315 314 312 311 311 310 309 309 308 307 306 306 305 304 302 301 300 300 298 296 295 294 292 290 289 290 289 289 289 289 289 290 290 290 291
7 6 5 4 2 360 358 357 356 355 354 352 349 347 346 346 343 340 339 336 334 333 333 332 330 329 328 327 326 324 322 321 319 317 315 313 312 311 311 311 310 309 308 307 306 306 305 305 303 301 301 299 297 295 293 292 290 288 288 288 289 289 287 287 287 288 288 289 290
8 6 4 2 0 359 357 356 355 355 353 351 348 347 347 346 343 341 339 337 335 334 333 331 330 329 328 326 325 323 322 320 319 317 315 313 312 312 312 311 311 309 308 307 306 305 304 303 302 300 299 297 295 293 291 290 288 287 287 287 288 288 286 285 286 287 288 290 291
7 5 3 1 359 357 356 356 355 354 352 349 347 348 348 345 342 341 339 337 336 335 333 332 331 329 328 327 324 323 322 321 318 317 316 315 314 314 313 313 311 310 310 309 307 305 303 302 300 299 297 294 292 290 290 289 288 287 286 286 287 286 286 285 286 287 289 291 292
5 3 0 359 358 356 355 355 354 352 350 347 347 347 346 344 343 342 340 337 337 336 335 334 332 330 329 328 326 324 322 321 319 318 317 317 316 315 314 314 312 311 311 309 307 305 303 300 298 296 294 291 289 289 289 289 288 287 286 286 286 287 287 287 288 289 291 292 294
4 1 359 357 356 355 354 354 352 350 348 346 346 346 345 344 344 343 342 339 339 338 337 335 334 332 330 329 327 326 324 322 320 319 318 318 317 316 315 314 314 312 310 309 307 305 302 299 296 294 293 291 290 289 289 289 288 287 286 286 287 288 289 290 291 291 292 294 295
2 359 357 355 355 355 354 353 350 348 346 346 346 346 346 345 345 345 343 342 341 340 338 337 336 334 332 330 329 328 327 325 323 321 320 320 319 318 317 316 315 313 311 309 308 305 302 299 296 294 293 292 291 290 290 290 290 289 288 288 290 290 291 292 293 294 294 296 297
1 357 356 355 355 354 353 351 349 347 345 346 346 346 346 346 347 346 345 344 343 341 340 339 338 336 334 332 331 330 329 328 327 326 325 325 324 322 321 320 318 315 313 311 309 306 303 299 297 295 294 294 293 292 292 291 290 290 289 290 291 292 293 295 296 297 298 298 298
0 358 357 357 355 353 351 351 348 346 345 346 347 347 347 347 348 347 346 345 344 343 341 340 340 338 336 335 334 333 332 332 332 332 332 332 330 328 326 325 323 321 318 316 314 310 306 303 301 299 297 296 296 296 295 293 291 290 289 290 291 293 296 298 300 301 301 301 301
1 360 360 358 356 354 352 351 348 346 346 347 348 349 349 348 348 348 348 347 346 345 343 343 342 341 340 338 337 336 336 336 337 338 338 337 336 335 333 331 330 328 326 324 322 319 315 311 308 305 303 301 301 301 300 298 295 293 291 291 292 294 297 301 304 305 304 304 304
3 2 2 -0 357 355 353 351 349 347 347 347 349 350 350 349 349 349 349 348 348 347 346 346 344 343 342 341 341 340 340 340 341 342 342 341 341 340 339 338 337 336 335 334 334 334 333 329 325 320 316 312 311 310 309 307 304 301 299 298 297 298 300 302 305 306 307 308 307
5 5 4 2 359 357 355 353 350 348 348 349 350 351 350 350 350 350 350 350 349 349 348 349 347 345 343 343 343 343 342 342 342 344 345 345 345 344 343 343 343 343 345 347 352 356 357 355 351 346 340 335 331 329 328 326 324 320 317 313 310 308 307 306 307 308 310 311 311
7 7 6 3 1 358 356 354 352 350 350 350 350 351 351 351 351 351 352 353 352 351 351 350 349 347 345 344 345 345 344 343 344 345 347 347 347 348 347 347 348 349 354 5 15 18 16 14 13 10 7 3 0 358 356 354 352 348 343 337 330 324 320 317 315 315 316 319 325
8 8 6 4 1 359 357 354 352 351 350 351 351 351 351 352 352 353 354 355 355 354 353 351 350 349 348 347 347 347 347 347 347 348 350 350 350 351 351 351 352 354 1 19 31 32 27 26 25 24 23 21 19 18 17 16 14 12 8 2 357 351 348 346 345 347 351 2 18
8 7 6 4 2 359 356 354 352 351 351 351 351 352 352 353 354 354 355 356 356 356 355 353 352 351 350 350 350 350 350 350 350 351 352 353 353 354 354 354 356 357 3 22 36 37 33 31 30 30 29 28 26 25 25 26 26 27 27 27 26 27 28 32 38 44 49 52 52
8 7 5 3 1 358 355 353 352 351 351 352 352 352 353 353 355 356 356 357 358 358 357 355 354 352 351 351 351 351 352 353 353 354 354 356 356 357 357 357 358 359 3 15 32 38 36 33 32 31 31 30 28 28 28 30 32 35 38 41 43 45 48 51 54 56 57 57 55
8 6 3 2 0 358 355 353 352 352 352 353 353 353 354 354 355 357 358 359 360 359 358 357 355 353 352 352 352 353 354 356 358 358 358 359 359 360 360 360 1 3 5 10 23 34 37 33 32 32 32 30 30 30 31 32 34 36 39 42 46 50 54 56 57 57 56 53 51
7 4 2 1 360 358 356 354 353 353 353 354 354 354 355 356 356 358 359 1 1 0 359 358 356 354 354 354 354 355 357 359 1 2 3 2 2 1 1 1 3 6 9 12 19 29 35 33 31 32 32 32 32 32 33 33 34 35 35 35 37 40 44 49 53 54 52 49 45
6 4 1 -0 359 358 356 355 354 354 354 354 355 355 356 357 358 359 -0 1 2 1 0 358 357 356 355 356 357 359 360 0 1 3 4 4 4 3 1 0 2 8 13 16 20 26 32 32 31 31 32 34 33 33 33 32 32 33 32 31 30 29 31 36 42 45 44 42 39
5 3 1 0 359 358 357 355 355 355 355 355 356 356 357 358 358 359 360 1 2 2 1 359 358 357 356 358 359 1 2 2 2 3 3 4 4 4 2 359 1 9 17 19 22 26 30 32 31 31 32 34 34 33 32 31 31 32 32 31 29 27 26 28 33 36 37 37 35
4 2 1 0 360 358 357 356 356 355 355 356 357 357 358 358 359 359 -0 1 2 2 1 360 358 357 357 358 0 2 4 4 4 4 3 3 3 3 2 359 360 9 20 23 25 27 30 32 32 32 32 33 33 32 30 29 30 31 32 31 30 28 26 26 28 30 32 33 32
4 2 1 0 359 358 357 357 356 356 356 357 357 357 358 359 359 360 1 2 2 2 1 0 359 358 358 359 1 2 4 4 5 5 4 4 3 2 1 360 1 8 19 25 28 29 31 32 32 32 31 32 33 31 29 28 27 28 30 30 29 28 27 26 26 26 26 27 28
3 1 360 359 357 357 357 357 357 356 356 356 356 357 358 359 360 1 1 2 3 3 1 360 359 360 0 1 1 2 4 5 5 5 5 6 4 3 2 1 1 6 17 27 31 32 32 32 33 33 32 31 32 31 29 27 26 26 26 27 27 27 27 27 26 25 22 20 22
3 1 359 357 355 355 356 356 356 355 355 355 355 356 358 360 1 1 1 2 2 2 -0 359 -0 1 2 2 2 3 4 5 5 5 6 7 5 3 2 2 1 4 14 28 34 34 33 32 33 32 32 32 32 31 29 27 25 24 24 25 25 25 25 26 26 24 21 18 18
2 360 357 354 353 354 354 355 354 353 353 353 354 356 358 0 1 0 0 0 -0 360 359 360 1 2 3 3 4 4 4 5 5 6 6 6 5 3 2 1 0 1 10 28 36 36 34 33 32 31 31 31 32 31 30 27 26 25 24 24 24 24 24 24 24 23 22 19 17
359 357 354 352 352 352 352 353 353 352 351 351 353 356 358 359 359 359 359 359 358 358 360 1 2 3 3 4 4 5 5 6 6 6 6 6 5 3 2 2 1 0 8 27 38 38 35 33 32 30 29 30 30 30 29 28 27 26 25 24 23 23 22 22 21 21 21 19 17
355 354 352 351 350 350 351 351 351 350 350 350 352 355 357 358 358 358 358 358 357 358 360 1 2 2 2 3 4 5 6 6 6 5 6 5 5 4 4 3 2 0 5 23 38 40 37 34 32 30 28 28 29 29 29 28 27 26 26 25 24 23 22 21 20 20 20 19 16
353 352 351 350 349 350 350 351 350 349 349 349 351 354 356 357 358 358 358 357 357 357 358 -0 1 1 1 1 2 4 5 6 6 6 6 7 6 6 5 4 3 359 2 17 34 40 39 35 32 30 28 27 28 28 28 27 26 26 26 25 24 23 22 21 21 21 21 20 16
353 352 351 351 351 351 351 351 350 349 349 349 351 354 356 357 357 358 357 357 356 356 357 359 0 0 360 360 1 2 4 5 5 6 6 6 7 7 6 4 3 359 1 11 25 36 40 37 33 29 27 26 26 26 26 25 25 25 25 25 24 24 23 22 21 21 21 20 17
353 353 352 352 352 352 352 352 351 351 350 351 352 354 356 358 358 358 357 356 355 355 357 359 0 -0 359 359 0 2 3 4 4 4 4 5 6 6 6 5 5 2 1 5 16 29 39 39 34 29 26 25 25 25 24 23 23 23 23 24 24 23 23 22 21 21 21 20 17
355 354 353 353 353 354 354 354 353 352 352 352 352 354 355 357 359 360 359 357 356 356 357 358 360 360 359 358 360 2 3 3 2 2 2 3 4 4 4 5 6 5 3 1 9 21 34 39 35 30 26 24 24 24 23 22 21 20 20 21 22 22 21 20 19 19 20 19 16
356 355 354 354 355 355 356 355 355 354 353 353 353 354 356 357 358 360 360 358 357 357 358 358 359 359 359 358 359 0 1 1 0 -0 -0 1 2 2 2 4 6 7 4 360 5 15 27 36 36 31 26 24 23 23 22 21 19 18 18 18 19 20 20 18 17 17 18 17 13
357 356 356 355 356 356 357 357 356 355 354 353 353 355 357 358 358 359 360 359 359 358 359 359 359 359 358 358 358 358 359 360 360 359 358 359 360 360 -0 2 5 7 4 360 3 10 19 30 35 33 28 25 23 22 22 21 19 18 16 15 15 17 18 16 14 14 14 14 10
357 357 356 356 357 358 358 358 357 356 354 352 353 355 357 359 358 358 359 0 1 0 -0 359 359 359 358 357 356 356 357 358 359 358 357 357 357 358 358 359 3 6 5 1 359 4 12 22 32 34 29 25 23 21 20 20 19 18 16 15 13 13 14 14 11 9 9 10 8
357 357 356 357 358 359 359 359 358 356 354 352 352 355 357 359 358 358 359 1 3 3 2 1 360 359 358 356 355 355 355 356 358 358 356 355 355 356 357 357 0 4 5 3 359 359 6 16 27 32 30 26 22 20 18 17 17 17 16 15 13 12 11 11 9 6 5 5 6
358 357 357 358 359 -0 360 359 358 356 353 352 352 354 356 357 357 357 357 360 2 3 3 1 1 -0 359 357 355 354 353 354 356 357 356 354 353 354 355 355 356 360 2 3 359 357 0 9 19 27 31 27 23 20 17 15 15 16 16 15 14 12 10 8 6 3 2 1 2
Height
884 883 882 881 880 879 878 876 875 874 873 872 870 869 867 866 864 863 861 860 858 856 855 853 851 849 847 845 844 842 840 839 837 835 833 831 829 827 825 824 822 820 819 817 815 814 813 811 810 809 808 806 804 803 802 801 800 799 798 796 795 794 793 791 790 789 788 787 786
884 883 882 881 880 879 878 876 875 874 873 872 870 869 868 866 864 863 861 860 859 857 855 853 851 849 847 845 844 842 840 838 835 833 831 829 827 825 824 822 820 818 817 815 814 812 811 809 809 807 806 804 803 802 801 800 799 798 796 795 794 793 791 790 789 788 787 786 785
884 883 882 881 879 879 877 876 875 874 873 871 870 869 868 866 864 863 861 860 858 857 855 853 851 849 847 844 843 841 839 837 834 832 830 828 825 824 822 820 818 816 815 813 812 810 809 808 807 805 804 803 802 800 799 798 797 796 795 793 792 791 790 789 788 787 786 784 784
884 883 881 880 879 878 877 876 875 874 873 871 870 869 868 866 865 863 862 860 858 856 854 853 850 848 846 844 842 840 838 835 833 831 829 826 824 821 819 818 816 814 813 811 810 809 807 806 805 804 802 801 800 799 798 797 796 794 793 792 791 790 789 788 786 785 784 783 782
884 883 882 880 879 878 877 876 875 874 872 871 870 869 867 866 864 863 861 859 858 856 854 852 850 848 846 844 841 839 836 834 832 829 827 824 822 819 818 816 814 813 811 809 808 807 805 804 803 802 800 799 798 797 796 795 794 793 791 790 789 788 787 786 785 784 783 782 781
884 883 881 880 879 878 877 876 875 874 872 871 870 869 867 866 864 863 861 859 858 855 854 852 850 848 845 843 840 838 835 833 830 828 825 823 820 818 816 814 813 811 809 808 806 805 804 803 801 800 799 798 797 795 794 794 792 791 789 789 788 787 785 784 784 782 781 780 779
884 883 881 880 879 878 877 876 874 873 872 871 869 868 867 865 864 862 861 859 857 855 853 851 849 847 844 842 839 836 834 831 829 826 824 821 818 816 814 812 811 809 808 806 805 804 802 801 800 799 797 796 795 794 792 792 790 789 788 786 785 784 784 783 782 781 780 779 778
884 883 881 880 879 878 877 875 874 873 872 870 869 868 866 865 864 862 860 859 857 855 853 851 849 846 844 841 838 835 833 830 827 824 821 819 817 814 813 811 809 808 806 804 803 802 800 799 798 797 795 794 793 792 790 789 789 787 786 784 783 782 781 781 780 779 778 777 776
884 882 881 880 879 878 877 875 874 873 872 870 869 868 866 865 864 862 860 858 857 855 853 850 848 845 843 840 837 834 832 829 826 823 820 818 815 813 811 809 807 805 804 802 801 799 799 797 796 795 794 793 791 790 789 788 786 785 784 783 781 780 779 779 778 778 777 776 775
883 882 881 880 879 878 876 875 874 873 872 870 869 867 866 864 863 861 859 858 856 854 852 849 846 844 841 839 836 834 831 828 825 822 819 817 814 812 810 808 806 804 802 800 799 797 796 795 794 793 791 790 789 788 787 786 784 783 782 781 779 778 778 777 777 776 775 774 773
883 882 881 880 879 877 876 875 874 873 871 870 868 867 865 864 862 861 859 858 855 853 851 848 846 843 840 838 835 833 830 827 824 821 818 816 813 811 809 806 804 801 799 798 796 795 794 793 791 790 789 788 787 786 784 784 783 781 780 779 778 777 776 775 775 775 774 773 772
883 882 881 880 879 877 876 875 874 872 871 869 868 866 865 863 862 860 859 857 854 852 850 848 845 843 840 837 835 832 829 826 823 820 817 815 812 809 807 804 802 799 797 795 794 793 792 790 789 788 786 785 784 784 783 782 781 780 779 777 776 775 774 773 773 773 773 772 771
884 883 881 880 879 877 876 875 873 872 870 869 868 866 864 863 861 860 858 856 854 851 849 847 844 842 839 837 834 832 829 826 822 819 817 814 811 808 805 802 799 797 795 793 791 790 789 788 787 785 784 783 782 781 781 780 779 778 777 776 775 773 772 771 771 771 771 771 770
884 883 881 880 878 877 876 874 873 872 870 869 867 866 864 863 861 859 858 855 853 851 849 846 844 841 839 837 834 831 829 826 822 819 816 813 809 806 803 800 798 795 793 790 789 788 787 785 784 783 782 781 780 779 779 778 778 777 776 774 773 772 770 769 769 770 770 769 769
884 882 881 879 878 877 875 874 873 871 870 869 867 865 864 862 861 859 857 855 853 851 848 846 843 841 839 836 834 831 829 826 823 819 816 812 808 805 802 799 796 794 791 789 787 785 784 784 782 781 780 779 778 777 777 776 776 775 774 773 772 770 769 769 768 769 769 768 768
883 882 880 879 878 877 875 874 873 871 870 868 867 865 864 862 860 859 857 855 853 850 848 846 843 840 838 836 834 831 828 825 823 819 816 812 808 804 801 798 795 793 790 788 786 784 783 782 781 780 779 778 777 776 775 774 774 773 772 771 770 769 769 768 768 768 768 767 767
883 881 880 879 878 876 875 874 872 871 869 868 867 865 864 862 860 859 857 855 852 850 848 845 843 841 838 835 833 831 829 825 823 820 817 813 809 805 801 798 794 792 790 788 786 784 783 782 781 779 779 777 776 775 774 773 772 772 771 770 769 768 768 767 767 767 767 767 766
882 881 880 879 877 876 874 873 872 871 869 868 866 865 864 862 860 858 856 854 852 850 848 845 843 841 838 835 833 831 829 826 823 820 817 814 811 807 803 799 795 793 790 789 787 786 784 782 781 780 779 778 776 775 774 773 772 771 770 769 768 768 767 767 767 767 767 766 767
882 881 879 878 877 875 874 873 872 871 869 868 866 865 863 862 860 858 856 854 852 850 848 845 843 840 838 836 833 831 829 826 824 821 818 815 812 808 805 801 797 794 792 791 789 788 786 784 782 781 779 779 777 776 775 774 772 771 770 769 768 767 767 766 766 767 767 767 768
882 881 879 878 877 875 874 873 872 871 869 868 866 864 863 861 860 858 856 854 852 850 848 845 843 840 838 836 833 831 829 826 824 821 818 815 812 809 806 803 799 796 794 794 791 789 787 785 784 782 781 779 778 777 775 774 773 771 770 769 768 768 767 767 767 767 768 768 769
882 881 879 878 877 875 874 873 872 870 869 868 866 864 863 861 859 858 856 854 852 850 848 845 843 841 838 836 834 831 829 827 824 822 819 816 814 811 808 805 801 798 796 795 793 791 789 787 785 784 782 780 779 778 776 775 774 772 771 770 769 769 769 769 769 769 769 769 769
882 881 879 878 877 875 874 873 872 870 869 867 866 864 863 861 859 858 856 854 852 850 848 846 844 841 839 837 834 832 829 827 824 822 819 817 814 812 809 806 803 800 798 797 794 792 790 789 787 785 783 782 781 779 778 777 775 774 773 772 772 771 771 771 771 771 771 770 770
882 881 879 878 876 875 874 873 871 870 869 867 865 864 862 861 859 857 855 854 852 850 848 846 844 842 840 838 835 833 830 827 824 822 819 817 815 812 810 807 804 802 800 799 796 794 792 790 788 786 784 783 782 781 780 779 778 777 776 775 774 774 773 773 773 773 772 772 771
882 880 879 878 876 875 874 873 871 869 868 866 865 864 862 860 859 857 855 853 852 850 848 846 844 842 840 838 836 833 831 828 825 822 819 818 815 813 811 808 806 804 803 801 799 796 794 792 791 789 787 785 784 783 782 781 780 779 778 777 776 775 774 774 774 774 774 773 772
882 880 879 877 876 875 874 872 871 869 868 866 865 863 862 860 858 857 855 853 851 850 848 846 844 843 840 838 836 834 831 829 826 824 821 818 816 814 812 809 808 807 806 804 801 799 796 795 793 791 789 788 787 786 784 784 783 782 780 779 778 777 776 775 775 775 775 774 774
882 880 879 877 876 874 873 872 871 869 868 866 864 863 861 860 858 856 855 853 851 850 848 846 845 843 841 839 837 834 832 829 827 825 822 820 817 815 813 811 809 809 808 806 803 801 799 797 796 794 792 790 789 788 787 786 785 784 783 782 780 779 778 777 777 777 776 776 774
881 880 878 877 875 874 873 872 870 869 867 866 864 863 861 859 858 856 855 853 851 850 848 847 845 844 842 839 837 835 833 831 829 826 824 822 819 817 815 813 811 810 810 807 805 803 801 799 798 796 794 793 791 790 789 789 788 786 785 784 783 781 780 779 779 778 778 777 776
881 879 878 876 875 874 873 872 870 869 867 865 864 863 861 859 858 856 854 853 851 850 848 847 845 844 842 840 838 836 834 832 830 828 825 823 821 819 817 815 813 812 811 809 806 804 802 801 799 798 796 795 793 792 791 790 789 788 787 786 784 784 783 781 780 780 779 778 777
881 879 878 876 875 874 873 871 870 869 867 865 864 862 861 859 858 856 854 853 851 850 849 847 846 844 843 841 839 837 835 833 831 829 827 824 822 820 818 817 815 814 812 810 807 805 804 803 801 800 799 797 795 794 793 792 791 790 789 788 787 786 784 784 782 781 780 779 778
881 879 878 876 875 874 872 871 870 869 867 865 864 862 860 859 857 856 854 853 851 850 849 848 846 845 843 842 840 838 836 834 832 830 828 825 823 821 819 817 815 814 813 811 808 806 805 804 803 802 800 799 797 796 795 794 793 792 790 789 789 788 786 785 784 783 782 781 780
880 879 878 876 875 874 872 871 870 868 867 865 864 862 860 859 857 856 854 853 852 851 849 848 846 845 844 842 841 839 837 835 833 831 829 827 825 823 820 818 816 814 813 812 809 807 806 805 804 803 802 800 798 797 796 795 794 793 792 791 790 789 788 787 786 784 783 782 781
880 879 877 876 875 874 872 871 869 868 867 865 864 862 860 859 857 856 854 853 852 850 849 848 846 845 844 843 841 839 838 836 834 832 830 828 826 824 822 819 817 815 814 812 810 808 808 807 805 804 803 801 800 798 797 796 795 794 793 792 791 790 789 788 787 785 784 783 781
880 879 877 876 874 873 872 870 869 868 866 865 863 862 860 859 857 856 854 853 852 850 849 848 847 845 844 843 842 840 839 837 835 834 831 829 827 825 823 821 818 816 815 814 811 809 809 808 807 806 804 803 801 799 798 797 796 795 794 793 792 791 790 789 788 786 785 784 782
879 878 877 875 874 873 871 870 869 867 866 864 863 862 860 859 857 856 854 853 852 851 849 849 847 846 845 844 842 841 839 838 836 834 833 830 828 826 824 822 820 818 816 814 812 810 809 809 808 807 806 804 803 801 800 799 797 796 795 794 793 792 791 789 788 787 786 784 784
879 878 876 875 874 873 871 869 868 867 865 864 863 861 860 859 857 856 854 853 852 851 850 849 847 846 845 844 843 841 840 839 837 835 834 832 829 827 825 823 821 819 817 816 814 812 810 809 809 808 807 805 804 803 801 800 799 798 797 795 794 793 791 790 789 788 787 785 784
879 878 876 875 874 872 871 869 868 866 865 864 863 861 860 859 857 856 855 854 852 851 849 848 847 846 845 844 843 842 840 839 838 836 834 833 831 829 826 824 822 820 818 817 815 813 811 810 810 809 808 806 805 804 803 801 800 799 798 797 795 794 793 792 790 789 788 786 785
879 877 876 874 873 872 870 869 868 866 865 864 863 861 860 859 857 856 855 854 852 851 849 849 847 846 845 844 843 842 841 839 838 837 835 834 832 830 828 826 824 821 819 818 816 814 812 811 810 809 809 807 806 805 804 803 802 800 799 798 797 795 794 793 792 790 789 788 787
879 877 876 874 873 872 870 869 867 866 865 864 863 861 860 859 857 856 855 854 853 851 850 849 848 846 845 844 843 842 841 840 839 837 836 834 833 831 829 827 825 823 821 819 817 815 814 812 811 810 809 808 807 806 805 804 803 801 800 799 797 796 795 794 793 792 790 789 788
878 877 876 874 873 871 870 869 867 866 865 864 863 861 860 859 858 856 855 854 853 852 850 849 848 847 846 844 843 842 841 840 839 838 836 834 833 832 830 828 826 824 822 820 819 817 816 814 812 810 810 809 808 807 806 805 804 803 801 800 798 797 796 795 794 793 791 790 789
878 877 876 874 873 871 870 869 867 866 865 864 863 861 860 859 858 856 855 854 853 852 851 849 848 847 846 845 844 842 841 840 839 838 836 835 834 832 831 829 827 825 823 821 820 819 817 815 813 811 810 809 809 808 807 806 805 803 802 801 799 798 796 795 794 793 792 791 789
878 877 875 874 873 871 870 869 867 866 865 864 863 861 860 859 858 857 855 854 853 852 851 850 849 847 846 845 844 842 841 840 839 838 836 835 834 833 831 829 828 826 824 822 821 819 818 815 814 813 811 810 809 808 808 806 805 804 803 802 800 799 798 796 795 794 793 791 790